DateTimeUTC,F1_A11,F1_S11,BsB_S11,BsG_S11,BsR_S11,BbsB_S11,BbsG_S11,BbsR_S11,BaB_A11,BaG_A11,BaR_A11,Tu_S11,T_S11,Uu_S11,U_S11,P_S11,T1_A11
2021-10-13T22:00:00Z,00000200,21000000,,,,,,,0000.08,0000.05,0000.13,16.3,23.5,,00.0,0666.1,30.9
2021-10-13T22:01:00Z,00000200,21000000,,,,,,,0000.27,0000.39,-000.02,16.4,23.5,,00.0,0666.1,30.9
2021-10-13T22:02:00Z,00000200,21000000,,,,,,,-000.00,-000.29,0000.20,16.4,23.6,,00.0,0666.1,30.9
2021-10-13T22:03:00Z,00000200,61000000,,,,,,,0001.33,0001.03,0000.92,16.4,23.6,,00.0,0666.1,30.9
2021-10-13T22:04:00Z,00000200,41000000,0007.44,0004.33,0002.51,0000.28,0000.89,0000.25,0001.12,0001.04,0000.51,16.8,23.5,00.0,00.0,0667.0,30.9
2021-10-13T22:05:00Z,00000200,01000000,0007.16,0005.20,0002.80,0000.25,0000.55,0000.43,0000.93,0000.94,0001.04,16.9,23.5,00.0,00.0,0667.1,30.9
2021-10-13T22:06:00Z,00000200,01000000,0006.51,0004.80,0002.41,0001.26,0000.85,0000.42,0001.24,0001.38,0000.29,17.0,23.5,00.0,00.0,0667.1,30.9
2021-10-13T22:07:00Z,00000200,01000000,0007.57,0004.56,0002.33,0001.22,0001.20,0000.54,0000.76,0000.70,0000.51,16.9,23.5,00.0,00.0,0667.0,30.9
2021-10-13T22:08:00Z,00000200,01000000,0007.66,0004.76,0002.65,0000.43,0001.03,0000.50,0001.60,0001.05,0000.87,16.9,23.4,00.0,00.0,0667.0,30.9
2021-10-13T22:09:00Z,00000200,01000000,0006.84,0004.89,0002.52,0000.66,0000.67,-000.04,0001.05,0000.91,0000.69,16.8,23.4,00.1,00.0,0667.0,30.9
2021-10-13T22:10:00Z,00000200,01000000,0006.97,0005.17,0002.79,0000.44,0000.87,0000.55,0001.34,0001.52,0001.16,16.7,23.3,00.1,00.0,0666.9,30.9
2021-10-13T22:11:00Z,00000200,01000000,0006.69,0004.99,0002.99,0000.53,0000.89,0000.53,0001.68,0001.41,0001.40,16.7,23.3,00.1,00.1,0666.9,30.9
2021-10-13T22:12:00Z,00000200,01000000,0007.06,0005.20,0002.81,0000.41,0000.76,0000.17,0001.11,0001.00,0000.62,16.7,23.3,00.2,00.1,0666.8,30.9
2021-10-13T22:13:00Z,00000200,01000000,0007.69,0005.03,0002.60,0000.56,0000.79,-000.00,0001.51,0000.90,0000.80,16.7,23.3,00.2,00.1,0666.8,30.9
2021-10-13T22:14:00Z,00000200,01000000,0007.49,0005.04,0002.50,0000.33,0000.92,0000.70,0000.43,0000.99,0000.41,16.7,23.3,00.2,00.1,0666.8,30.9
2021-10-13T22:15:00Z,00000200,01000000,0007.40,0005.05,0002.56,0000.83,0000.77,0000.31,0001.36,0000.54,0000.68,16.7,23.3,00.1,00.1,0666.7,30.9
2021-10-13T22:16:00Z,00000200,01000000,0008.27,0004.90,0002.95,0000.25,0000.77,0000.25,0000.89,0001.11,0001.02,16.8,23.3,00.1,00.1,0666.7,30.9
2021-10-13T22:17:00Z,00000200,01000000,0007.49,0004.66,0002.96,0001.21,0000.73,0000.36,0000.80,0000.77,0000.35,16.8,23.3,00.1,00.0,0666.8,30.9
2021-10-13T22:18:00Z,00000200,01000000,0007.41,0005.18,0002.62,-000.30,0000.81,0000.23,0001.39,0001.39,0000.83,16.9,23.4,00.1,00.0,0666.8,30.9
2021-10-13T22:19:00Z,00000200,01000000,0006.86,0005.24,0002.63,0000.59,0000.66,0000.18,0001.19,0000.91,0000.88,17.0,23.4,00.0,00.0,0666.8,30.9
2021-10-13T22:20:00Z,00000200,01000000,0007.07,0005.09,0002.94,0000.14,0000.70,0000.73,0001.00,0000.70,0000.22,17.0,23.4,00.0,00.0,0666.7,30.9
2021-10-13T22:21:00Z,00000200,01000000,0007.28,0005.08,0002.76,0000.28,0000.86,0000.40,0001.15,0001.22,0000.99,17.1,23.5,00.0,00.0,0666.7,30.9
2021-10-13T22:22:00Z,00000200,01000000,0006.59,0005.20,0002.74,0000.28,0000.70,0000.17,0000.75,0000.57,0000.38,17.1,23.5,00.0,00.0,0666.6,30.9
2021-10-13T22:23:00Z,00000200,01000000,0007.34,0004.79,0002.74,0000.52,0000.69,0000.16,0000.97,0000.65,0000.57,17.0,23.5,00.0,00.0,0666.6,30.9
2021-10-13T22:24:00Z,00000200,01000000,0006.85,0005.02,0002.74,0000.34,0000.87,0000.35,0000.95,0001.31,0000.87,16.9,23.4,00.0,00.0,0666.6,30.9
2021-10-13T22:25:00Z,00000200,01000000,0007.62,0005.06,0002.87,0000.36,0000.62,0000.35,0001.34,0000.73,0000.66,16.8,23.4,00.0,00.0,0666.5,30.9
2021-10-13T22:26:00Z,00000200,01000000,0006.84,0004.71,0002.92,0000.36,0001.10,0000.34,0000.90,0000.95,0000.51,16.8,23.3,00.0,00.0,0666.6,30.9
2021-10-13T22:27:00Z,00000200,01000000,0007.03,0005.41,0002.81,0000.09,0000.76,0000.37,0001.18,0001.01,0000.58,16.8,23.3,,00.0,0666.5,30.9
2021-10-13T22:28:00Z,00000200,01000000,0007.31,0005.23,0002.64,0000.20,0000.78,0000.47,0001.16,0001.16,0001.05,16.8,23.3,,00.0,0666.5,30.9
2021-10-13T22:29:00Z,00000200,01000000,0007.77,0005.08,0003.00,0000.72,0000.60,0000.56,0001.18,0000.97,0000.54,16.8,23.3,00.0,00.0,0666.5,30.9
2021-10-13T22:30:00Z,00000200,01000000,0006.77,0005.25,0002.59,0000.63,0000.74,0000.35,0001.39,0001.24,0001.01,16.9,23.3,00.0,00.0,0666.4,30.9
2021-10-13T22:31:00Z,00000200,01000000,0007.52,0005.02,0002.55,0000.78,0000.87,0000.07,0001.37,0001.11,0001.21,16.9,23.4,,00.0,0666.4,30.9
2021-10-13T22:32:00Z,00000200,01000000,0007.28,0005.12,0003.03,0001.00,0000.82,0000.49,0001.32,0001.02,0000.65,17.0,23.4,00.0,00.0,0666.4,30.9
2021-10-13T22:33:00Z,00000200,01000000,0007.10,0005.43,0003.20,0000.53,0001.16,0000.33,0001.01,0001.19,0000.56,17.0,23.4,,00.0,0666.4,30.9
2021-10-13T22:34:00Z,00000200,01000000,0006.85,0005.02,0002.78,0000.03,0000.80,0000.08,0001.21,0001.05,0000.88,17.1,23.5,00.0,00.0,0666.4,30.9
2021-10-13T22:35:00Z,00000200,01000000,0007.10,0004.94,0003.02,0000.24,0000.86,0000.25,0000.99,0000.79,0000.59,17.1,23.5,00.0,00.0,0666.4,30.9
2021-10-13T22:36:00Z,00000200,01000000,0007.42,0005.52,0002.74,0000.04,0000.86,0000.37,0000.76,0000.88,0000.25,17.0,23.5,00.0,00.0,0666.3,30.9
2021-10-13T22:37:00Z,00000200,01000000,0007.34,0005.19,0002.89,0000.83,0000.99,0000.31,0001.09,0001.14,0001.26,16.9,23.4,00.0,00.0,0666.3,30.9
2021-10-13T22:38:00Z,00000200,01000000,0006.68,0005.22,0002.87,0000.50,0000.79,0000.40,0001.31,0000.85,0000.33,16.9,23.4,00.0,00.0,0666.3,30.9
2021-10-13T22:39:00Z,00000200,01000000,0007.24,0005.18,0003.12,0001.13,0000.78,0000.73,0001.30,0001.21,0000.88,16.8,23.3,,00.0,0666.3,30.9
2021-10-13T22:40:00Z,00000200,01000000,0006.87,0005.33,0003.09,-000.28,0000.89,0000.33,0001.22,0001.11,0001.04,16.7,23.3,,00.0,0666.3,30.9
2021-10-13T22:41:00Z,00000200,01000000,0007.00,0005.33,0002.80,0001.17,0001.08,0000.04,0001.38,0001.34,0000.94,16.7,23.2,,00.0,0666.3,30.8
2021-10-13T22:42:00Z,00000200,01000000,0007.49,0005.44,0003.32,0000.68,0000.74,0000.31,0001.17,0000.75,0000.73,16.7,23.3,00.0,00.0,0666.3,30.8
2021-10-13T22:43:00Z,00000200,01000000,0007.56,0005.35,0002.95,0000.58,0000.60,0000.69,0001.29,0001.44,0000.92,16.7,23.2,,00.0,0666.3,30.9
2021-10-13T22:44:00Z,00000200,01000000,0007.72,0005.53,0002.71,0001.35,0000.55,0000.60,0001.47,0000.82,0000.74,16.7,23.2,,00.0,0666.3,30.9
2021-10-13T22:45:00Z,00000200,01000000,0007.22,0005.43,0003.23,0000.83,0000.70,0000.64,0001.21,0001.45,0000.63,16.7,23.3,00.0,00.0,0666.2,30.9
2021-10-13T22:46:00Z,00000200,01000000,0007.21,0005.16,0002.78,0000.83,0000.82,0000.36,0000.98,0001.16,0001.17,16.8,23.3,,00.0,0666.2,30.9
2021-10-13T22:47:00Z,00000200,01000000,0007.51,0005.69,0003.18,-000.22,0000.62,0000.84,0001.41,0000.73,0000.48,16.8,23.3,,00.0,0666.2,30.9
2021-10-13T22:48:00Z,00000200,01000000,0007.55,0005.57,0003.11,0000.61,0000.81,0000.06,0001.44,0000.97,0000.93,16.9,23.3,00.0,00.0,0666.2,30.9
2021-10-13T22:49:00Z,00000200,01000000,0007.12,0005.42,0003.24,0001.06,0000.71,0000.60,0001.11,0001.12,0000.80,16.9,23.4,,00.0,0666.1,30.9
2021-10-13T22:50:00Z,00000200,01000000,0007.39,0005.56,0003.02,0001.07,0001.00,0000.30,0001.34,0001.61,0000.95,16.9,23.4,,00.0,0666.1,30.9
2021-10-13T22:51:00Z,00000200,01000000,0007.91,0005.55,0003.13,-000.07,0000.71,0000.62,0001.06,0000.74,0000.63,16.9,23.4,,00.0,0666.1,30.9
2021-10-13T22:52:00Z,00000200,01000000,0008.67,0005.77,0003.02,0000.80,0000.67,0000.16,0001.87,0001.65,0001.20,16.8,23.4,00.0,00.0,0666.1,30.9
2021-10-13T22:53:00Z,00000200,01000000,0007.98,0005.56,0003.11,0001.03,0000.75,0000.63,0001.11,0001.03,0000.96,16.8,23.3,00.0,00.0,0666.1,30.9
2021-10-13T22:54:00Z,00000200,01000000,0008.16,0005.54,0003.33,-000.09,0001.11,0000.80,0000.81,0000.96,0000.80,16.7,23.3,00.0,00.0,0666.1,30.9
2021-10-13T22:55:00Z,00000200,01000000,0007.55,0005.74,0003.37,0000.46,0000.68,0000.48,0001.06,0000.45,-000.00,16.7,23.3,00.0,00.0,0666.1,30.9
2021-10-13T22:56:00Z,00000200,01000000,0007.38,0005.80,0002.96,0000.84,0001.03,0000.65,0001.28,0001.32,0001.28,16.6,23.2,00.0,00.0,0666.1,30.9
2021-10-13T22:57:00Z,00000200,41000000,,,,,,,0000.53,0000.66,0000.30,16.6,23.2,,00.0,0666.0,30.9
2021-10-13T22:58:00Z,00000200,61000000,,,,,,,-000.41,-000.50,-000.35,16.3,23.4,,00.0,0665.1,30.9
2021-10-13T22:59:00Z,00000200,21000000,,,,,,,-000.01,0000.08,0000.03,16.3,23.5,,00.0,0665.1,30.9
